www.pogodaiklimat.ru

Погода и климат >> Архив погоды >> Австралия >> Западная Австралия >> Маунт Магнет аэропорт


ПОГОДА в Маунт Магнет аэропорту

  • Прогноз погоды в Маунт Магнет аэропорту
  • Монитор погоды в Маунт Магнет аэропорту

АРХИВ ПОГОДЫ в Маунт Магнет аэропорту

Время (UTC), дата Ветер
(напр.,м/с)
 
Видим.   Явления Облачность Т
(С)
Тd
(С)
f
(%)
Тe
(С)
Тes
(С)
Комфортность P
(гПа)
Po
(гПа)
Тmin
(С)
Tmax
(С)
R
(мм)
R24
(мм)
S
(см)
10 12.06 Ю 3 н/о н/о +15.1 +7.4 60 +14 +14 1023.2 975.1
12 12.06 Ю 2 н/о н/о +13.9 +8.9 72 +13 +13 1023.7 975.6
13 12.06 штиль 0 н/о н/о +13.7 +9.6 76 +13 +13 1024.0 975.9 +17.0
15 12.06 Ю 1 н/о н/о +13.0 +9.8 81 +14 +14 1023.6 975.5
16 12.06 ЮЗ 2 н/о н/о +12.7 +10.4 86 +12 +12 1023.6 975.5
18 12.06 ЮЗ 2 н/о н/о +12.6 +9.6 82 +12 +12 1023.0 974.9
19 12.06 З 2 н/о н/о +12.2 +10.1 87 +12 +12 1022.6 974.5
21 12.06 штиль 0 н/о н/о +11.7 +10.1 90 +11 +11 1022.7 974.6
22 12.06 ЮЗ 2 н/о н/о +11.6 +10.2 91 +11 +11 1023.5 975.4
00 13.06 штиль 0 н/о н/о +11.7 +10.1 90 +11 +11 1024.6 976.4
01 13.06 Ю 2 н/о н/о +12.5 +9.5 82 +12 +12 1025.3 977.1 +8.0
03 13.06 ЮВ 1 н/о н/о +14.5 +9.1 70 +15 +15 1025.1 976.9
04 13.06 З 2 н/о н/о +14.7 +8.9 68 +14 +14 1024.7 976.5
06 13.06 ЮЗ 3 н/о н/о +15.3 +8.5 64 +15 +15 1023.0 974.9
07 13.06 Ю 4 н/о н/о +15.9 +7.4 57 +15 +15 1022.6 974.5
09 13.06 З 4 н/о н/о +15.8 +4.8 48 +15 +15 1023.1 975.0
10 13.06 ЮЗ 3 н/о н/о +14.4 +6.3 58 +14 +14 1023.5 975.4
12 13.06 штиль 0 н/о н/о +11.3 +7.4 77 +11 +11 1024.1 976.0
13 13.06 штиль 0 н/о н/о +10.2 +7.4 83 +10 +10 1024.5 976.3 +17.0
15 13.06 штиль 0 н/о н/о +8.3 +7.1 92 +7 +7 1024.2 976.1
16 13.06 Ю 2 н/о н/о +7.8 +6.9 94 +6 +6 1023.9 975.8
18 13.06 штиль 0 н/о н/о +7.0 +6.1 94 +6 +6 1023.9 975.8
19 13.06 штиль 0 н/о н/о +6.5 +5.6 94 +5 +5 1023.8 975.7
21 13.06 штиль 0 н/о н/о +5.5 +4.9 96 +4 +4 1023.2 975.1
22 13.06 штиль 0 н/о н/о +5.5 +4.9 96 +4 +4 1023.2 975.1
00 14.06 СВ 2 н/о н/о +8.4 +7.2 92 +6 +6 1024.6 976.4
01 14.06 штиль 0 н/о н/о +12.2 +7.1 71 +12 +12 1025.5 977.3 +5.0
03 14.06 СВ 1 н/о н/о +15.8 +6.3 53 +17 +17 1025.2 977.0
04 14.06 ЮВ 2 н/о н/о +15.8 +4.8 48 +16 +16 1024.1 976.0
06 14.06 В 2 н/о н/о +17.2 +4.5 43 +18 +18 1021.9 973.9
07 14.06 З 3 н/о н/о +17.5 +4.5 42 +18 +18 1022.0 974.0
09 14.06 З 3 н/о н/о +17.2 +3.5 40 +17 +17 1022.5 974.4
10 14.06 ЮЗ 2 н/о н/о +16.0 +5.3 49 +16 +16 1022.7 974.6
12 14.06 З 3 н/о н/о +13.1 +6.5 64 +12 +12 1023.8 975.7
13 14.06 З 3 н/о н/о +12.3 +6.6 68 +11 +11 1023.9 975.8 +18.4
15 14.06 З 3 н/о н/о +11.0 +6.4 73 +9 +9 1023.8 975.7
16 14.06 З 2 н/о н/о +10.1 +6.6 79 +9 +9 1023.8 975.7
18 14.06 штиль 0 н/о н/о +9.3 +6.9 85 +9 +9 1024.0 975.9
19 14.06 штиль 0 н/о н/о +8.6 +6.9 89 +8 +8 1024.0 975.9
21 14.06 З 2 н/о н/о +8.2 +7.3 94 +7 +7 1024.6 976.4
22 14.06 ЮЗ 2 н/о н/о +8.1 +7.7 97 +6 +6 1024.9 976.7
00 15.06 ЮВ 3 н/о н/о +7.4 +7.4 100 +4 +4 1026.4 978.2
01 15.06 ЮВ 2 н/о н/о +7.6 +7.6 100 +5 +5 1027.2 978.9 +7.4
03 15.06 ЮВ 3 н/о н/о +12.4 +9.2 81 +11 +11 1027.2 978.9
04 15.06 ЮВ 3 н/о н/о +14.6 +8.3 66 +14 +14 1026.0 977.8
06 15.06 ЮВ 4 н/о н/о +16.9 +6.1 49 +17 +17 1024.1 976.0
07 15.06 ЮВ 3 н/о н/о +17.7 +5.3 44 +18 +18 1024.1 976.0
09 15.06 Ю 4 н/о н/о +17.3 +4.6 43 +17 +17 1024.5 976.3
10 15.06 Ю 3 н/о н/о +15.6 +6.1 53 +15 +15 1024.8 976.6
12 15.06 Ю 3 н/о н/о +12.0 +6.3 68 +11 +11 1025.4 977.2
13 15.06 Ю 2 н/о н/о +11.0 +6.9 76 +10 +10 1025.5 977.3 +18.4
15 15.06 Ю 3 н/о н/о +9.3 +6.9 85 +7 +7 1025.6 977.4
16 15.06 В 2 н/о н/о +8.3 +6.3 87 +7 +7 1025.5 977.3
18 15.06 Ю 2 н/о н/о +7.5 +6.1 91 +6 +6 1025.4 977.2
19 15.06 Ю 2 н/о н/о +7.5 +6.3 92 +5 +5 1025.5 977.3
21 15.06 штиль 0 н/о н/о +6.1 +5.4 95 +5 +5 1025.7 977.5
22 15.06 штиль 0 н/о н/о +5.5 +4.9 96 +4 +4 1025.8 977.6
00 16.06 СВ 1 н/о н/о +8.2 +7.1 93 +8 +8 1027.4 979.1
01 16.06 СВ 3 н/о н/о +11.5 +7.6 77 +10 +10 1027.7 979.4 +5.4
03 16.06 В 3 н/о н/о +15.7 +7.2 57 +15 +15 1027.1 978.8
04 16.06 СВ 3 н/о н/о +16.8 +6.3 50 +17 +17 1026.1 977.9
06 16.06 ЮЗ 3 н/о н/о +17.3 +4.6 43 +17 +17 1024.6 976.4
07 16.06 ЮВ 2 н/о н/о +17.2 +4.9 44 +18 +18 1024.6 976.4
09 16.06 Ю 5 н/о н/о +16.5 +5.8 49 +16 +16 1024.7 976.5
10 16.06 Ю 4 н/о н/о +15.5 +5.7 52 +15 +15 1025.0 976.8
12 16.06 Ю 4 н/о н/о +13.6 +6.2 61 +12 +12 1026.3 978.1
13 16.06 Ю 3 н/о н/о +12.4 +6.2 66 +11 +11 1026.8 978.5 +18.2
15 16.06 ЮВ 3 н/о н/о +11.6 +5.9 68 +10 +10 1026.2 978.0
16 16.06 ЮВ 1 н/о н/о +9.7 +5.9 77 +10 +10 1026.3 978.1
18 16.06 ЮВ 2 н/о н/о +8.2 +5.8 85 +7 +7 1025.8 977.6
19 16.06 В 2 н/о н/о +7.1 +5.3 88 +5 +5 1025.6 977.4
21 16.06 штиль 0 н/о н/о +6.1 +4.9 92 +5 +5 1026.2 978.0
22 16.06 В 2 н/о н/о +5.6 +4.6 93 +3 +3 1026.6 978.3
00 17.06 штиль 0 н/о н/о +6.8 +5.3 90 +6 +6 1027.5 979.2
01 17.06 ЮВ 4 н/о н/о +11.3 +5.4 67 +9 +9 1027.9 979.6 +5.5
03 17.06 В 7 н/о н/о +15.3 +5.8 53 +14 +14 1027.6 979.3
04 17.06 В 6 н/о н/о +16.3 +5.0 47 +15 +15 1026.8 978.5
06 17.06 В 5 н/о н/о +17.7 +5.0 43 +17 +17 1024.9 976.7
07 17.06 В 5 н/о н/о +17.8 +4.4 41 +17 +17 1024.7 976.5
09 17.06 В 5 н/о н/о +17.2 +3.5 40 +17 +17 1024.8 976.6
10 17.06 ЮВ 3 н/о н/о +15.4 +4.2 47 +15 +15 1025.2 977.0
12 17.06 ЮВ 3 н/о н/о +12.4 +4.6 59 +11 +11 1025.8 977.6
13 17.06 ЮВ 4 н/о н/о +11.6 +5.5 66 +10 +10 1026.1 977.9 +18.4
15 17.06 ЮВ 3 н/о н/о +9.4 +5.8 78 +7 +7 1026.1 977.9
16 17.06 ЮВ 3 н/о н/о +9.4 +5.8 78 +7 +7 1025.9 977.7
18 17.06 В 5 н/о н/о +10.0 +5.0 71 +7 +7 1025.3 977.1
19 17.06 В 5 н/о н/о +9.5 +4.7 72 +6 +6 1025.4 977.2
21 17.06 В 3 н/о н/о +7.7 +4.3 79 +5 +5 1025.1 976.9
22 17.06 В 3 н/о н/о +6.8 +4.1 83 +4 +4 1025.1 976.9
00 18.06 В 3 н/о н/о +8.4 +4.4 76 +6 +6 1026.1 977.9
01 18.06 В 4 н/о н/о +11.1 +4.8 65 +9 +9 1026.6 978.3 +6.8
03 18.06 В 6 н/о н/о +15.4 +3.9 46 +14 +14 1025.6 977.4
04 18.06 СВ 6 н/о н/о +16.3 +3.7 43 +15 +15 1024.4 976.2
06 18.06 В 4 н/о н/о +17.8 +2.5 36 +18 +18 1022.3 974.2
07 18.06 В 4 н/о н/о +17.8 +1.3 33 +18 +18 1022.0 974.0
09 18.06 ЮВ 6 н/о н/о +17.4 +1.8 35 +17 +17 1021.8 973.8
10 18.06 ЮВ 4 н/о н/о +15.6 +2.4 41 +15 +15 1022.0 974.0
12 18.06 В 4 н/о н/о +12.7 +2.8 51 +11 +11 1022.8 974.7
13 18.06 ЮВ 2 н/о н/о +11.0 +3.1 58 +10 +10 1023.0 974.9 +18.7
15 18.06 ЮВ 3 н/о н/о +8.2 +2.9 69 +6 +6 1023.0 974.9
16 18.06 В 5 н/о н/о +10.5 +2.4 57 +8 +8 1022.6 974.5
18 18.06 В 3 н/о н/о +9.0 +2.1 62 +7 +7 1022.3 974.2
19 18.06 В 3 н/о н/о +8.1 +2.1 66 +6 +6 1022.1 974.1
21 18.06 В 4 н/о н/о +7.4 +1.9 68 +4 +4 1021.6 973.6
22 18.06 В 3 н/о н/о +6.8 +1.9 71 +4 +4 1021.9 973.9
00 19.06 В 3 н/о н/о +7.6 +2.1 68 +5 +5 1023.3 975.2
01 19.06 В 5 н/о н/о +11.2 +2.8 56 +9 +9 1023.6 975.5 +5.9
03 19.06 В 5 н/о н/о +14.9 +2.8 44 +14 +14 1022.6 974.5
06 19.06 В 6 н/о н/о +18.5 +2.8 35 +18 +18 1018.8 970.9
07 19.06 В 6 н/о н/о +19.3 +2.6 33 +19 +19 1018.4 970.5
09 19.06 В 4 н/о н/о +18.3 +1.8 33 +18 +18 1018.6 970.7
10 19.06 ЮВ 3 н/о н/о +15.9 +2.3 40 +16 +16 1019.0 971.1

 

Местоположение метеостанции Маунт Магнет аэропорт (Западная Австралия, Австралия): широта -28.11 долгота 117.83 высота над уровнем моря 408 м.

В архиве по умолчанию представлена погода в Маунт Магнет аэропорту за последнюю неделю. Архивные данные за месяц целиком и за предыдущие месяцы, начиная с января 2011 года, Вы можете получить, выбрав интересующий диапазон дат из раскрывающегося списка и нажав кнопку "Ввод!".


*Определитесь, кто Вы:
робот инопланетянин человек

Внимание! Время в таблицах - всемирное. Для получения местного времени необходимо прибавить поправку, которая равна 8 ч.

Смотрите также архив погоды в соседних городах и на ближайших метеорологических станциях:

Погода в Микатарре (Западная Австралия, Австралия) (181 км)
Погода в Мораве (Западная Австралия, Австралия) (214 км)
Погода в Дауоллину (Западная Австралия, Австралия) (266 км)
Погода в Леинстере (Западная Австралия, Австралия) (283 км)
Погода в Джеральдтоне (Западная Австралия, Австралия) (316 км)
Погода в Баджингарре (Западная Австралия, Австралия) (333 км)
Погода в Леонора аэропорту (Западная Австралия, Австралия) (352 км)
Погода в Саутерн Кросс (Западная Австралия, Австралия) (377 км)
Погода в Кандердине (Западная Австралия, Австралия) (395 км)
Погода в Гингине (Западная Австралия, Австралия) (419 км)

Пояснения к столбцам:

Ветер - указаны скорость ветра в м/с - средняя за 10 мин, порывы в срок и между сроками (в фигурных скобках) и направление, откуда дует ветер: С - северный, СВ - северо-восточный, В - восточный, ЮВ - юго-восточный, Ю - южный, ЮЗ - юго-западный, З - западный, СЗ - северо-западный.
Видимость - горизонтальная дальность видимости в метрах или километрах. При видимости от 1 до 10 км при отсутствии осадков обычно наблюдается дымка, при ухудшении видимости до 1 км и менее - туман. В сухую погоду видимость может ухудшаться дымом, пылью или мглою.
Явления - указаны атмосферные явления, наблюдавшиеся в срок или в последний час перед сроком; фигурными скобками обозначены явления, наблюдавшиеся между сроками (за 1-3 часа до срока); квадратными скобками обозначены град или гололедные отложения с указанием их диаметра в мм.
Облачность - указаны через наклонную черту общая и нижняя облачность в баллах и высота нижней границы облаков в метрах; квадратными скобками обозначены формы облаков: Ci - перистые, Cs - перисто-слоистые, Cc - перисто-кучевые, Ac - высококучевые, As - высокослоистые, Sc - слоисто-кучевые, Ns - слоисто-дождевые, Cu - кучевые, Cb - кучево-дождевые. Подробнее классификацию облаков см. в Атласе облаков (PDF).
T - Температура воздуха - температура, измеренная на высоте 2 м над землей.
Td - Температура точки росы - температура, при понижении до которой содержащийся в воздухе водяной пар достигнет насыщения.
f - Относительная влажность воздуха - влажноcть воздуха, измеренная на высоте 2 м над землей.
Te - Эффективная температура - температура, которую ощущает одетый по сезону человек в тени. Характеристика душности погоды. При расчете учитывается влияние влажности воздуха и скорости ветра на теплоощущения человека.
Tes - Эффективная температура на солнце - температура, которую ощущает человек, с поправкой на солнечный нагрев. Характеристика знойности погоды. Зависит от высоты солнца над горизонтом, облачности и скорости ветра. Ночью, в пасмурную погоду, а также при ветре 12 м/с и более поправка равна нулю.
P - Атмосферное давление - приведенное к уровню моря атмосферное давление.
Po - Атмосферное давление - измеренное на уровне метеостанции атмосферное давление.
Tmin - Минимальная температура - минимум температуры воздуха на высоте 2 м над землей.
Tmax - Максимальная температура - максимум температуры воздуха на высоте 2 м над землей.
R - Количество осадков - Количество выпавших осадков за период времени, мм. При наведении курсора мыши на число - период времени, за который выпало указанное количество осадков.
R24 - Количество осадков - Количество выпавших осадков за 24 часа, мм.
S - Снежный покров - Высота снежного покрова, см. При наведении курсора мыши на число - состояние снежного покрова и степень покрытия местности в баллах.